When you browse on this site, cookies collect data to enhance your experience and personalize the content and advertising you see.
Visit our Privacy Policy to learn more. By continuing to use the site, you agree to this use of cookies and data.
  • en France
  • Liste des pays
  • À 7 jours
  • Température de l'eau
  • Carte météo
  • Widgets météo
  • user-avatar
    Se connecter

    Météo par heure à Halifax

    Ce jour, 31 Mai, Dimanche

    Heure Température Précipitation Vent Pression Humidité
    00:00 +14°C° 0.1 mm 4 m/s 754 mmHg 97%
    01:00 +14°C° 0.1 mm 4 m/s 754 mmHg 97%
    02:00 +15°C° 0 mm 2 m/s 753 mmHg 94%
    03:00 +15°C° 0 mm 2 m/s 753 mmHg 95%
    04:00 +14°C° 0 mm 2 m/s 753 mmHg 96%
    05:00 +13°C° 0 mm 3 m/s 753 mmHg 97%
    06:00 +14°C° 0 mm 3 m/s 753 mmHg 93%
    07:00 +16°C° 0 mm 3 m/s 753 mmHg 89%
    08:00 +17°C° 0 mm 2 m/s 753 mmHg 80%
    09:00 +18°C° 0 mm 3 m/s 753 mmHg 76%
    10:00 +19°C° 0 mm 3 m/s 753 mmHg 71%
    11:00 +20°C° 0 mm 4 m/s 754 mmHg 67%
    12:00 +20°C° 0 mm 4 m/s 754 mmHg 66%
    13:00 +20°C° 0 mm 5 m/s 754 mmHg 65%
    14:00 +21°C° 0 mm 5 m/s 754 mmHg 64%
    15:00 +20°C° 0.1 mm 4 m/s 754 mmHg 66%
    16:00 +20°C° 0.1 mm 3 m/s 754 mmHg 67%
    17:00 +19°C° 0.1 mm 2 m/s 754 mmHg 69%
    18:00 +18°C° 0 mm 2 m/s 754 mmHg 74%
    19:00 +16°C° 0 mm 1 m/s 755 mmHg 80%
    20:00 +14°C° 0 mm 1 m/s 755 mmHg 85%
    21:00 +13°C° 0 mm 2 m/s 755 mmHg 86%
    22:00 +11°C° 0 mm 3 m/s 756 mmHg 87%
    23:00 +11°C° 0 mm 3 m/s 756 mmHg 88%

    Demain, 1 Juin, Lundi

    Heure Température Précipitation Vent Pression Humidité
    00:00 +11°C° 0 mm 3 m/s 756 mmHg 86%
    01:00 +11°C° 0 mm 4 m/s 756 mmHg 84%
    02:00 +11°C° 0 mm 4 m/s 756 mmHg 82%
    03:00 +11°C° 0 mm 4 m/s 756 mmHg 79%
    04:00 +10°C° 0 mm 4 m/s 756 mmHg 76%
    05:00 +10°C° 0 mm 4 m/s 756 mmHg 73%
    06:00 +10°C° 0 mm 4 m/s 756 mmHg 70%
    07:00 +11°C° 0 mm 4 m/s 757 mmHg 66%
    08:00 +11°C° 0 mm 4 m/s 757 mmHg 62%
    09:00 +13°C° 0 mm 3 m/s 757 mmHg 57%
    10:00 +14°C° 0 mm 3 m/s 757 mmHg 51%
    11:00 +16°C° 0 mm 3 m/s 756 mmHg 46%
    12:00 +17°C° 0 mm 3 m/s 756 mmHg 46%
    13:00 +17°C° 0 mm 3 m/s 756 mmHg 45%
    14:00 +17°C° 0 mm 3 m/s 756 mmHg 45%
    15:00 +16°C° 0 mm 3 m/s 756 mmHg 46%
    16:00 +16°C° 0 mm 3 m/s 756 mmHg 47%
    17:00 +14°C° 0 mm 3 m/s 756 mmHg 47%
    18:00 +12°C° 0 mm 3 m/s 756 mmHg 54%
    19:00 +11°C° 0 mm 3 m/s 756 mmHg 60%
    20:00 +9°C° 0 mm 3 m/s 756 mmHg 66%
    21:00 +8°C° 0 mm 3 m/s 756 mmHg 71%
    22:00 +7°C° 0 mm 3 m/s 756 mmHg 76%
    23:00 +6°C° 0 mm 2 m/s 756 mmHg 81%

    Après-demain, 2 Juin, Mardi

    Heure Température Précipitation Vent Pression Humidité
    00:00 +5°C° 0 mm 3 m/s 756 mmHg 81%
    01:00 +5°C° 0 mm 3 m/s 755 mmHg 82%
    02:00 +5°C° 0 mm 3 m/s 755 mmHg 82%
    03:00 +5°C° 0 mm 4 m/s 755 mmHg 78%
    04:00 +5°C° 0 mm 4 m/s 755 mmHg 74%
    05:00 +5°C° 0 mm 4 m/s 754 mmHg 70%
    06:00 +7°C° 0 mm 4 m/s 754 mmHg 65%
    07:00 +8°C° 0 mm 4 m/s 754 mmHg 60%
    08:00 +10°C° 0 mm 4 m/s 755 mmHg 55%
    09:00 +12°C° 0 mm 5 m/s 754 mmHg 50%
    10:00 +13°C° 0 mm 5 m/s 754 mmHg 45%
    11:00 +14°C° 0 mm 5 m/s 753 mmHg 41%
    12:00 +15°C° 0 mm 5 m/s 753 mmHg 39%
    13:00 +15°C° 0 mm 4 m/s 753 mmHg 38%
    14:00 +17°C° 0 mm 4 m/s 753 mmHg 36%
    15:00 +17°C° 0 mm 4 m/s 753 mmHg 37%
    16:00 +17°C° 0 mm 3 m/s 753 mmHg 38%
    17:00 +17°C° 0 mm 3 m/s 752 mmHg 39%
    18:00 +14°C° 0 mm 3 m/s 753 mmHg 48%
    19:00 +12°C° 0 mm 2 m/s 753 mmHg 57%
    20:00 +9°C° 0 mm 2 m/s 753 mmHg 66%
    21:00 +9°C° 0 mm 2 m/s 753 mmHg 68%
    22:00 +8°C° 0 mm 3 m/s 753 mmHg 70%
    23:00 +7°C° 0 mm 3 m/s 753 mmHg 72%

    3 Juin, Mercredi

    Heure Température Précipitation Vent Pression Humidité
    00:00 +7°C° 0 mm 3 m/s 753 mmHg 74%
    01:00 +5°C° 0 mm 3 m/s 753 mmHg 77%
    02:00 +5°C° 0 mm 3 m/s 752 mmHg 80%
    03:00 +7°C° 0 mm 3 m/s 752 mmHg 79%
    04:00 +7°C° 0 mm 3 m/s 752 mmHg 79%
    05:00 +8°C° 0 mm 3 m/s 751 mmHg 78%
    06:00 +7°C° 1.8 mm 4 m/s 751 mmHg 84%
    07:00 +7°C° 1.8 mm 5 m/s 751 mmHg 90%
    08:00 +6°C° 1.8 mm 7 m/s 750 mmHg 97%
    09:00 +6°C° 1.8 mm 7 m/s 750 mmHg 96%
    10:00 +8°C° 1.8 mm 7 m/s 749 mmHg 96%
    11:00 +7°C° 1.8 mm 8 m/s 749 mmHg 96%
    12:00 +9°C° 0.2 mm 7 m/s 748 mmHg 96%
    13:00 +10°C° 0.2 mm 6 m/s 748 mmHg 96%
    14:00 +10°C° 0.2 mm 5 m/s 747 mmHg 95%
    15:00 +12°C° 0 mm 5 m/s 748 mmHg 90%
    16:00 +13°C° 0 mm 5 m/s 748 mmHg 85%
    17:00 +15°C° 0 mm 4 m/s 748 mmHg 79%
    18:00 +13°C° 0 mm 4 m/s 748 mmHg 84%
    19:00 +12°C° 0 mm 3 m/s 749 mmHg 89%
    20:00 +10°C° 0 mm 3 m/s 749 mmHg 94%
    21:00 +10°C° 0 mm 3 m/s 749 mmHg 94%
    22:00 +9°C° 0 mm 3 m/s 750 mmHg 94%
    23:00 +9°C° 0 mm 3 m/s 750 mmHg 95%

    4 Juin, Jeudi

    Heure Température Précipitation Vent Pression Humidité
    00:00 +9°C° 0 mm 3 m/s 750 mmHg 96%
    01:00 +9°C° 0 mm 3 m/s 750 mmHg 96%
    02:00 +8°C° 0 mm 3 m/s 750 mmHg 97%
    03:00 +9°C° 0 mm 3 m/s 750 mmHg 97%
    04:00 +9°C° 0 mm 3 m/s 750 mmHg 97%
    05:00 +10°C° 0 mm 3 m/s 750 mmHg 97%
    06:00 +10°C° 0 mm 3 m/s 750 mmHg 96%
    07:00 +11°C° 0 mm 3 m/s 750 mmHg 95%
    08:00 +12°C° 0 mm 3 m/s 750 mmHg 94%
    09:00 +14°C° 0 mm 3 m/s 750 mmHg 89%
    10:00 +16°C° 0 mm 3 m/s 750 mmHg 84%
    11:00 +18°C° 0 mm 3 m/s 750 mmHg 79%
    12:00 +19°C° 0 mm 4 m/s 750 mmHg 76%
    13:00 +20°C° 0 mm 4 m/s 750 mmHg 74%
    14:00 +21°C° 0 mm 4 m/s 750 mmHg 71%
    15:00 +20°C° 0 mm 4 m/s 750 mmHg 75%
    16:00 +19°C° 0 mm 4 m/s 750 mmHg 79%
    17:00 +19°C° 0 mm 4 m/s 750 mmHg 83%
    18:00 +17°C° 0 mm 4 m/s 750 mmHg 88%
    19:00 +16°C° 0 mm 3 m/s 751 mmHg 92%
    20:00 +15°C° 0 mm 2 m/s 751 mmHg 97%
    21:00 +13°C° 0 mm 3 m/s 751 mmHg 97%
    22:00 +13°C° 0 mm 3 m/s 752 mmHg 97%
    23:00 +13°C° 0 mm 3 m/s 752 mmHg 97%

    5 Juin, Vendredi

    Heure Température Précipitation Vent Pression Humidité
    00:00 +13°C° 0 mm 3 m/s 752 mmHg 97%
    01:00 +13°C° 0 mm 3 m/s 752 mmHg 98%
    02:00 +13°C° 0 mm 3 m/s 753 mmHg 98%
    03:00 +12°C° 0 mm 3 m/s 753 mmHg 98%
    04:00 +12°C° 0 mm 3 m/s 753 mmHg 98%
    05:00 +13°C° 0 mm 2 m/s 754 mmHg 98%
    06:00 +15°C° 0 mm 2 m/s 754 mmHg 89%
    07:00 +17°C° 0 mm 2 m/s 754 mmHg 81%
    08:00 +19°C° 0 mm 2 m/s 755 mmHg 73%
    09:00 +21°C° 0 mm 2 m/s 755 mmHg 64%
    10:00 +22°C° 0 mm 3 m/s 755 mmHg 55%
    11:00 +25°C° 0 mm 3 m/s 755 mmHg 46%
    12:00 +25°C° 0 mm 3 m/s 755 mmHg 46%
    13:00 +26°C° 0 mm 4 m/s 755 mmHg 46%
    14:00 +26°C° 0 mm 4 m/s 755 mmHg 47%
    15:00 +25°C° 0 mm 4 m/s 755 mmHg 54%
    16:00 +22°C° 0 mm 4 m/s 755 mmHg 61%
    17:00 +21°C° 0 mm 3 m/s 755 mmHg 68%
    18:00 +19°C° 0 mm 3 m/s 755 mmHg 75%
    19:00 +17°C° 0 mm 2 m/s 755 mmHg 83%
    20:00 +15°C° 0 mm 2 m/s 755 mmHg 91%
    21:00 +14°C° 0 mm 2 m/s 755 mmHg 91%
    22:00 +14°C° 0 mm 2 m/s 755 mmHg 91%
    23:00 +13°C° 0 mm 2 m/s 755 mmHg 91%
    Voir plus